Location: Bilsen
(53.7722°N, 9.8765°E)
Time: 06:28:50
(UTC+00:00)

Meteor 2-2 Rocket - Pass Details

Date: 18 February 2020
Orbit: 852 x 929 km, 81.3° (Epoch: 09 April)

Event Time Altitude Azimuth Distance (km) Brightness Sun altitude
Rises 05:16:32 0° 201° (SSW) 3,564 7.3 -12.1°
Reaches altitude 10° 05:19:02 10° 204° (SSW) 2,628 6.6 -11.8°
Maximum altitude 05:25:02 66° 287° (WNW) 1,013 4.4 -10.9°
Drops below altitude 10° 05:31:03 10° 10° (N) 2,640 6.8 -10.0°
Sets 05:33:34 0° 13° (NNE) 3,580 7.5 -9.6°
